sat.trackr.live / text

‹ back to catalog

STAR ONE D2

NORAD 49055 · 2021-069A

PAYLOAD ACTIVE UNKNOWN

§ Identity

Operator
Country
BRAZ
Launch date
2021-07-30
Launch site
FRGUI
Launch vehicle
Mass (kg)
RCS (m²)

Purposes: comms

External: N2YO · Heavens-Above · Gunter

§ Orbital elements

Epoch: 2026-05-24T10:29:14.459424Z

Period
1,436.18 min
Inclination
0.0101°
Eccentricity
0.0001489
Mean motion
1.00265819 rev/d
Perigee alt
35,782.0 km
Apogee alt
35,794.5 km
Semi-major
42,166.4 km
B*
0.0000e+0
RAAN
303.2052°
Arg perigee
138.4492°
Mean anomaly
247.6149°
Rev number
1,770

§ Raw data

STAR ONE D21 49055U 21069A   26144.43697291  .00000000  00000+0  00000+0 0  99972 49055   0.0101 303.2052 0001489 138.4492 247.6149  1.00265819 17705

JSON: /api/v1/satellites/49055 · /tle

For live sub-satellite position, see the globe view (requires WebGL).

§ Visibility from observer

Set your observer location to see the next 7 days of passes ≥ 10°. The values pass through the URL so the page stays shareable.

No JS? Fill the form by hand. The geolocation button needs JavaScript.